Himawari 2 — JG5636 — position and weather

sailwx.info

Track history (hours):
 
Tides and Currents Weather Stations Pressure Air Temp Water Temp Dewpoint Dewpoint Depression Visibility Wind Speed Wind Dir Waves Ship Positions

Himawari 2

Last reported at 2014-Oct-22 18:06 UTC. Time now 2014-Oct-25 04:26 UTC.
Position N 35°04' E 139°44'.

Length 161 m; draft 6.5 m.

Type: Cargo ship. MMSI: 431100957.

Date/timePositionNaut miles runAvg speedWind from/ knotsBaromVisibWave heightAir tempDewpointWater temp
2014-Oct-22 18:06N 35°04' E 139°44'1018.1
2014-Oct-22 17:33N 35°13' E 139°46'1313.3
2014-Oct-22 16:34N 35°27' E 139°46'1210.8
2014-Oct-22 15:29N 35°38' E 139°50'0 0.0
2014-Oct-22 14:29N 35°38' E 139°50'0 0.0
2014-Oct-22 12:11N 35°38' E 139°50'0 0.0
2014-Oct-22 10:15N 35°38' E 139°50'3 3.8
2014-Oct-22 09:33N 35°35' E 139°51'9 9.3
2014-Oct-22 08:34N 35°26' E 139°49'1110.5
2014-Oct-22 07:33N 35°16' E 139°46'24919.2
2014-Oct-21 18:33N 33°58' E 134°59'2424.2
2014-Oct-21 17:33N 34°22' E 134°60'1414.3
2014-Oct-21 16:33N 34°36' E 134°56'7 0.6
2014-Oct-21 05:33N 34°34' E 134°49'1414.4
2014-Oct-21 04:33N 34°36' E 135°06'1615.5
2014-Oct-21 03:33N 34°40' E 135°24'0 0.0
2014-Oct-21 02:33N 34°40' E 135°24'0 0.0
2014-Oct-21 01:33N 34°40' E 135°24'0 0.0
2014-Oct-21 00:27N 34°40' E 135°24'0 0.0
2014-Oct-20 23:33N 34°40' E 135°24'0 0.0
2014-Oct-20 22:33N 34°40' E 135°24'1 0.7
2014-Oct-20 21:33N 34°39' E 135°24'1211.6
2014-Oct-20 20:33N 34°31' E 135°14'1716.4
2014-Oct-20 19:33N 34°19' E 135°01'2020.5
2014-Oct-20 18:34N 33°58' E 134°59'23819.8
2014-Oct-20 06:31N 35°03' E 139°37'1516.0
2014-Oct-20 05:34N 35°16' E 139°46'1312.6
2014-Oct-20 04:34N 35°28' E 139°49'9 2.7
2014-Oct-20 01:05N 35°38' E 139°50'0 0.0
2014-Oct-19 23:11N 35°38' E 139°50'0 0.0
2014-Oct-19 22:21N 35°38' E 139°50'4 4.8
2014-Oct-19 21:33N 35°34' E 139°51'1211.9
2014-Oct-19 20:33N 35°23' E 139°46'1111.1
2014-Oct-19 19:33N 35°12' E 139°47'1816.9
2014-Oct-19 18:29N 34°54' E 139°46'1616.4
2014-Oct-19 17:30N 34°56' E 140°05'  
2014-Oct-16 23:23N 34°57' E 140°10'2318.7
2014-Oct-16 22:10N 34°57' E 139°42'1420.4
2014-Oct-16 21:28N 35°11' E 139°46'1213.3
2014-Oct-16 20:33N 35°23' E 139°42'1615.6
2014-Oct-16 19:33N 35°37' E 139°49'0 0.4
2014-Oct-16 18:26N 35°38' E 139°50'0 0.0
2014-Oct-16 17:32N 35°38' E 139°50'0 0.0
2014-Oct-16 15:32N 35°38' E 139°50'1 0.2
2014-Oct-16 12:30N 35°37' E 139°49'1314.1
2014-Oct-16 11:34N 35°24' E 139°46'1211.8
2014-Oct-16 10:33N 35°12' E 139°47'25020.3
2014-Oct-15 22:13N 33°55' E 134°58'1624.0
2014-Oct-15 21:34N 34°10' E 135°00'2222.0
2014-Oct-15 20:33N 34°33' E 135°02'1212.5
2014-Oct-15 19:33N 34°33' E 134°47'5 0.5
2014-Oct-15 07:33N 34°35' E 134°53'1717.6
2014-Oct-15 06:33N 34°36' E 135°14'9 9.1
2014-Oct-15 05:32N 34°40' E 135°24'0 0.0
2014-Oct-15 04:32N 34°40' E 135°24'0 0.0
2014-Oct-15 03:32N 34°40' E 135°24'0 0.0
2014-Oct-15 02:32N 34°40' E 135°24'0 0.0
2014-Oct-15 01:32N 34°40' E 135°24'0 0.0
2014-Oct-15 00:20N 34°40' E 135°24'0 0.0
2014-Oct-14 23:32N 34°40' E 135°24'0 0.0
2014-Oct-14 22:30N 34°40' E 135°24'4 3.8
2014-Oct-14 21:33N 34°37' E 135°21'1817.9
2014-Oct-14 20:33N 34°24' E 135°06'1414.5
2014-Oct-14 19:34N 34°11' E 134°60'23417.3
2014-Oct-14 06:05N 35°02' E 139°37'1119.8
2014-Oct-14 05:33N 35°10' E 139°45'1313.2
2014-Oct-14 04:33N 35°23' E 139°42'13 5.7
2014-Oct-14 02:15N 35°33' E 139°53'0 0.0
2014-Oct-14 01:21N 35°33' E 139°53'0 0.0
2014-Oct-13 17:09N 35°33' E 139°53'0 0.0
2014-Oct-13 16:30N 35°33' E 139°53'0 0.0
2014-Oct-13 14:04N 35°33' E 139°53'  
Track history (hours):
 
Tides and Currents Weather Stations Pressure Air Temp Water Temp Dewpoint Dewpoint Depression Visibility Wind Speed Wind Dir Waves Ship Positions

Himawari 2

Last reported at 2014-Oct-22 18:06 UTC. Time now 2014-Oct-25 04:26 UTC.
Position N 35°04' E 139°44'.

Length 161 m; draft 6.5 m.

Type: Cargo ship. MMSI: 431100957.

Date/timePositionNaut miles runAvg speedWind from/ knotsBaromVisibWave heightAir tempDewpointWater temp
2014-Oct-22 18:06N 35°04' E 139°44'1018.1
2014-Oct-22 17:33N 35°13' E 139°46'1313.3
2014-Oct-22 16:34N 35°27' E 139°46'1210.8
2014-Oct-22 15:29N 35°38' E 139°50'0 0.0
2014-Oct-22 14:29N 35°38' E 139°50'0 0.0
2014-Oct-22 12:11N 35°38' E 139°50'0 0.0
2014-Oct-22 10:15N 35°38' E 139°50'3 3.8
2014-Oct-22 09:33N 35°35' E 139°51'9 9.3
2014-Oct-22 08:34N 35°26' E 139°49'1110.5
2014-Oct-22 07:33N 35°16' E 139°46'24919.2
2014-Oct-21 18:33N 33°58' E 134°59'2424.2
2014-Oct-21 17:33N 34°22' E 134°60'1414.3
2014-Oct-21 16:33N 34°36' E 134°56'7 0.6
2014-Oct-21 05:33N 34°34' E 134°49'1414.4
2014-Oct-21 04:33N 34°36' E 135°06'1615.5
2014-Oct-21 03:33N 34°40' E 135°24'0 0.0
2014-Oct-21 02:33N 34°40' E 135°24'0 0.0
2014-Oct-21 01:33N 34°40' E 135°24'0 0.0
2014-Oct-21 00:27N 34°40' E 135°24'0 0.0
2014-Oct-20 23:33N 34°40' E 135°24'0 0.0
2014-Oct-20 22:33N 34°40' E 135°24'1 0.7
2014-Oct-20 21:33N 34°39' E 135°24'1211.6
2014-Oct-20 20:33N 34°31' E 135°14'1716.4
2014-Oct-20 19:33N 34°19' E 135°01'2020.5
2014-Oct-20 18:34N 33°58' E 134°59'23819.8
2014-Oct-20 06:31N 35°03' E 139°37'1516.0
2014-Oct-20 05:34N 35°16' E 139°46'1312.6
2014-Oct-20 04:34N 35°28' E 139°49'9 2.7
2014-Oct-20 01:05N 35°38' E 139°50'0 0.0
2014-Oct-19 23:11N 35°38' E 139°50'0 0.0
2014-Oct-19 22:21N 35°38' E 139°50'4 4.8
2014-Oct-19 21:33N 35°34' E 139°51'1211.9
2014-Oct-19 20:33N 35°23' E 139°46'1111.1
2014-Oct-19 19:33N 35°12' E 139°47'1816.9
2014-Oct-19 18:29N 34°54' E 139°46'1616.4
2014-Oct-19 17:30N 34°56' E 140°05'  
2014-Oct-16 23:23N 34°57' E 140°10'2318.7
2014-Oct-16 22:10N 34°57' E 139°42'1420.4
2014-Oct-16 21:28N 35°11' E 139°46'1213.3
2014-Oct-16 20:33N 35°23' E 139°42'1615.6
2014-Oct-16 19:33N 35°37' E 139°49'0 0.4
2014-Oct-16 18:26N 35°38' E 139°50'0 0.0
2014-Oct-16 17:32N 35°38' E 139°50'0 0.0
2014-Oct-16 15:32N 35°38' E 139°50'1 0.2
2014-Oct-16 12:30N 35°37' E 139°49'1314.1
2014-Oct-16 11:34N 35°24' E 139°46'1211.8
2014-Oct-16 10:33N 35°12' E 139°47'25020.3
2014-Oct-15 22:13N 33°55' E 134°58'1624.0
2014-Oct-15 21:34N 34°10' E 135°00'2222.0
2014-Oct-15 20:33N 34°33' E 135°02'1212.5
2014-Oct-15 19:33N 34°33' E 134°47'5 0.5
2014-Oct-15 07:33N 34°35' E 134°53'1717.6
2014-Oct-15 06:33N 34°36' E 135°14'9 9.1
2014-Oct-15 05:32N 34°40' E 135°24'0 0.0
2014-Oct-15 04:32N 34°40' E 135°24'0 0.0
2014-Oct-15 03:32N 34°40' E 135°24'0 0.0
2014-Oct-15 02:32N 34°40' E 135°24'0 0.0
2014-Oct-15 01:32N 34°40' E 135°24'0 0.0
2014-Oct-15 00:20N 34°40' E 135°24'0 0.0
2014-Oct-14 23:32N 34°40' E 135°24'0 0.0
2014-Oct-14 22:30N 34°40' E 135°24'4 3.8
2014-Oct-14 21:33N 34°37' E 135°21'1817.9
2014-Oct-14 20:33N 34°24' E 135°06'1414.5
2014-Oct-14 19:34N 34°11' E 134°60'23417.3
2014-Oct-14 06:05N 35°02' E 139°37'1119.8
2014-Oct-14 05:33N 35°10' E 139°45'1313.2
2014-Oct-14 04:33N 35°23' E 139°42'13 5.7
2014-Oct-14 02:15N 35°33' E 139°53'0 0.0
2014-Oct-14 01:21N 35°33' E 139°53'0 0.0
2014-Oct-13 17:09N 35°33' E 139°53'0 0.0
2014-Oct-13 16:30N 35°33' E 139°53'0 0.0
2014-Oct-13 14:04N 35°33' E 139°53'  

Dump ship's entire track history